www.pogodaiklimat.ru

Погода и климат >> Архив погоды >> Южная Африка >> Punda Maria


ПОГОДА в Punda Maria

  • Прогноз погоды в Punda Maria
  • Монитор погоды в Punda Maria

АРХИВ ПОГОДЫ в Punda Maria

Время (UTC), дата Ветер
(напр.,м/с)
 
Видим.   Явления Облачность Т
(С)
Тd
(С)
f
(%)
Тe
(С)
Тes
(С)
Комфортность P
(гПа)
Po
(гПа)
Тmin
(С)
Tmax
(С)
R
(мм)
R24
(мм)
S
(см)
18 11.04 ЮВ 1 н/о н/о +23.3 +14.4 57 +27 +27 душно 965.9 +23.3 +26.6
21 11.04 штиль 0 н/о н/о +21.8 +14.5 63 +25 +25 комфорт 966.1 +21.8 +26.6
00 12.04 штиль 0 н/о н/о +21.5 +15.6 69 +25 +25 комфорт 965.6 +21.3 +26.6
12 12.04 Ю 1 н/о н/о +25.1 +16.6 59 +29 +29 душно 963.7 +19.3 +25.4 0.2
15 12.04 ЮВ 1 н/о н/о +24.6 +15.6 57 +28 +28 душно 963.3 +24.6 +26.7
18 12.04 штиль 0 н/о н/о +23.0 +16.1 65 +27 +27 душно 964.4 +23.0 +26.7 0.2
21 12.04 штиль 0 н/о н/о +21.6 +17.0 75 +26 +26 душно 964.4 +21.6 +26.7
00 13.04 штиль 0 н/о н/о +18.9 +16.3 85 +20 +20 963.3 +18.9 +26.7 0.2
03 13.04 штиль 0 н/о н/о +18.9 +16.9 88 +20 +20 962.9 +18.6 +26.7
09 13.04 штиль 0 н/о н/о +25.2 +15.4 55 +28 +28 жарко 964.0 +18.2 +26.3
12 13.04 ЮЗ 1 н/о н/о +29.6 +14.0 39 +32 +32 душно 961.2 +18.2 +29.8
15 13.04 штиль 0 н/о н/о +28.2 +13.5 40 +30 +30 жарко 961.1 +28.2 +29.8
18 13.04 штиль 0 н/о н/о +23.4 +13.7 54 +27 +27 душно 962.2 +23.2 +29.8
21 13.04 штиль 0 н/о н/о +20.9 +12.7 59 +23 +23 комфорт 962.9 +20.9 +29.8
00 14.04 штиль 0 н/о н/о +18.5 +12.7 69 +19 +19 962.1 +18.5 +29.8
03 14.04 штиль 0 н/о н/о +16.9 +12.7 76 +17 +17 962.2 +16.9 +29.8
06 14.04 З 1 н/о н/о +21.8 +15.5 67 +25 +25 комфорт 963.3 +16.7
09 14.04 ЮЗ 1 н/о н/о +29.2 +14.4 40 +31 +31 жарко 962.7 +16.7 +29.5
12 14.04 штиль 0 н/о н/о +30.3 +13.0 35 +32 +32 жарко 959.3 +16.7 +31.8
15 14.04 З 1 н/о н/о +29.7 +12.4 34 +31 +31 жарко 959.0 +29.7 +31.8
18 14.04 штиль 0 н/о н/о +23.0 +12.7 52 +26 +26 жарко 960.1 +23.0 +31.8
21 14.04 штиль 0 н/о н/о +23.4 +13.4 53 +27 +27 душно 960.5 +21.7 +31.8
00 15.04 штиль 0 н/о н/о +22.9 +15.8 64 +27 +27 душно 960.1 +21.7 +31.8
03 15.04 З 1 н/о н/о +22.0 +16.3 70 +26 +26 душно 959.9 +19.9 +31.8
06 15.04 З 1 н/о н/о +26.0 +18.0 61 +30 +30 душно 961.6 +19.9
09 15.04 З 1 н/о н/о +33.2 +15.5 35 +36 +36 очень
душно
961.0 +19.9 +33.3
12 15.04 ЮЗ 1 н/о н/о +34.0 +13.3 29 +35 +35 очень
жарко
957.9 +19.9 +34.6
21 15.04 штиль 0 н/о н/о +23.3 +12.7 51 +26 +26 жарко 958.8 +23.3 +35.0
00 16.04 штиль 0 н/о н/о +21.7 +13.4 59 +24 +24 комфорт 959.2 +21.7 +35.0
03 16.04 штиль 0 н/о н/о +22.3 +18.9 81 +28 +28 душно 960.7 +21.7 +35.0
06 16.04 Ю 1 н/о н/о +23.4 +17.9 71 +29 +29 душно 962.9 +21.6
09 16.04 Ю 1 н/о н/о +24.6 +17.7 65 +29 +29 душно 963.1 +21.6 +26.1
12 16.04 Ю 2 н/о н/о +27.5 +17.2 53 +31 +31 душно 960.7 +21.6 +30.1
15 16.04 штиль 0 н/о н/о +25.4 +17.9 63 +30 +30 душно 959.8 +24.6 +30.1
21 16.04 штиль 0 н/о н/о +19.6 +16.3 81 +22 +22 комфорт 963.3 +18.9 +30.1
00 17.04 В 1 н/о н/о +20.7 +17.3 81 +25 +25 комфорт 964.4 +18.9 +30.1
03 17.04 штиль 0 н/о н/о +20.6 +18.0 85 +24 +24 комфорт 964.5 +18.9 +30.1
06 17.04 ЮВ 2 н/о н/о +22.6 +18.8 79 +28 +28 душно 966.2 +18.9
09 17.04 ЮВ 2 н/о н/о +26.9 +18.6 60 +32 +32 очень
душно
966.1 +18.9 +26.9
12 17.04 ЮВ 2 н/о н/о +30.0 +15.5 41 +33 +33 душно 963.5 +18.9 +30.5 0.2
15 17.04 В 1 н/о н/о +29.1 +14.7 41 +31 +31 жарко 962.7 +29.1 +30.6
18 17.04 штиль 0 н/о н/о +24.1 +15.2 58 +27 +27 жарко 964.6 +24.1 +30.6 0.2

 

Местоположение метеостанции Punda Maria (Южная Африка): широта -22.68 долгота 31.02 высота над уровнем моря 457 м.

В архиве по умолчанию представлена погода в Punda Maria за последнюю неделю. Архивные данные за месяц целиком и за предыдущие месяцы, начиная с января 2011 года, Вы можете получить, выбрав интересующий диапазон дат из раскрывающегося списка и нажав кнопку "Ввод!".


*Определитесь, кто Вы:
робот инопланетянин человек

Внимание! Время в таблицах - всемирное. Для получения местного времени необходимо прибавить поправку, которая равна 2 ч.

Смотрите также архив погоды в соседних городах и на ближайших метеорологических станциях:

Погода в Тхохояндоу (Южная Африка) (62 км)
Погода в Тхохояндоу (Южная Африка) (78 км)
Погода в Левубу (Южная Африка) (88 км)
Погода в Байтбридже (Зимбабве) (117 км)
Погода в Пхалаборве (Южная Африка) (141 км)
Погода в Тзанеен-Греншоек (Южная Африка) (154 км)
Погода в Тзанеене (Южная Африка) (156 км)
Погода в Маре (Южная Африка) (157 км)
Погода в Ньоняне (Свазиленд) (179 км)
Погода в Вувулане (Свазиленд) (183 км)

Пояснения к столбцам:

Ветер - указаны скорость ветра в м/с - средняя за 10 мин, порывы в срок и между сроками (в фигурных скобках) и направление, откуда дует ветер: С - северный, СВ - северо-восточный, В - восточный, ЮВ - юго-восточный, Ю - южный, ЮЗ - юго-западный, З - западный, СЗ - северо-западный.
Видимость - горизонтальная дальность видимости в метрах или километрах. При видимости от 1 до 10 км при отсутствии осадков обычно наблюдается дымка, при ухудшении видимости до 1 км и менее - туман. В сухую погоду видимость может ухудшаться дымом, пылью или мглою.
Явления - указаны атмосферные явления, наблюдавшиеся в срок или в последний час перед сроком; фигурными скобками обозначены явления, наблюдавшиеся между сроками (за 1-3 часа до срока); квадратными скобками обозначены град или гололедные отложения с указанием их диаметра в мм.
Облачность - указаны через наклонную черту общая и нижняя облачность в баллах и высота нижней границы облаков в метрах; квадратными скобками обозначены формы облаков: Ci - перистые, Cs - перисто-слоистые, Cc - перисто-кучевые, Ac - высококучевые, As - высокослоистые, Sc - слоисто-кучевые, Ns - слоисто-дождевые, Cu - кучевые, Cb - кучево-дождевые. Подробнее классификацию облаков см. в Атласе облаков (PDF).
T - Температура воздуха - температура, измеренная на высоте 2 м над землей.
Td - Температура точки росы - температура, при понижении до которой содержащийся в воздухе водяной пар достигнет насыщения.
f - Относительная влажность воздуха - влажноcть воздуха, измеренная на высоте 2 м над землей.
Te - Эффективная температура - температура, которую ощущает одетый по сезону человек в тени. Характеристика душности погоды. При расчете учитывается влияние влажности воздуха и скорости ветра на теплоощущения человека.
Tes - Эффективная температура на солнце - температура, которую ощущает человек, с поправкой на солнечный нагрев. Характеристика знойности погоды. Зависит от высоты солнца над горизонтом, облачности и скорости ветра. Ночью, в пасмурную погоду, а также при ветре 12 м/с и более поправка равна нулю.
P - Атмосферное давление - приведенное к уровню моря атмосферное давление.
Po - Атмосферное давление - измеренное на уровне метеостанции атмосферное давление.
Tmin - Минимальная температура - минимум температуры воздуха на высоте 2 м над землей.
Tmax - Максимальная температура - максимум температуры воздуха на высоте 2 м над землей.
R - Количество осадков - Количество выпавших осадков за период времени, мм. При наведении курсора мыши на число - период времени, за который выпало указанное количество осадков.
R24 - Количество осадков - Количество выпавших осадков за 24 часа, мм.
S - Снежный покров - Высота снежного покрова, см. При наведении курсора мыши на число - состояние снежного покрова и степень покрытия местности в баллах.